Location: *
(50.8512°N, 5.6907°E)
Time: 23:19:38
(UTC+00:00)

Cosmos 2058 - Pass Details

Date: 09 April 2020
Orbit: 563 x 583 km, 82.5° (Epoch: 04 June)

Event Time Altitude Azimuth Distance (km) Brightness Sun altitude
Rises 20:49:26 0° 344° (NNW) 2,776 7.4 -20.8°
Reaches altitude 10° 20:51:42 10° 337° (NNW) 1,877 6.5 -21.0°
Maximum altitude 20:55:35 42° 267° (W) 823 3.9 -21.5°
Enters shadow 20:57:22 26° 214° (SW) 1,127 4.2 -21.6°
